Probability
0 0 0 0 0 0 0 0 0 0 0 0 0 0 0 0 0 0 0 0 0 0 0 0 0 0 0 0 0 0 0 0 0 0 0 0 0 0 0 0 0 0 0 0
0 0 0 0 0 0 0 0 0 0 0 0 0 0 0 0 0 0 0 0 0 0 0 0 0 0 0 0 0 0 0 0 0 0 0 0 0 0 0 0 0 0 0 0
0 0 0 0 0 0 0 0 0 0 0 0 0 0 0 0 0 0 0 0 0 0 0 0 0 0 0 0 0 0 0 0 0 0 0 0 0 0 0 0 0 0 0 0
0 0 0 0 0 0 0 0 0 0 0 0 0 0 0 0 0 0 0 0 0 0 0 0 0 0 0 0 0 0 0 0 0 0 0 0 0 0 0 0 0 0 0 0
0 0 0 0 0 0 0 0 0 0 0 0 0 0 0 0 0 0 0 0 0 0 0 0 0 0 0 0 0 0 0 0 0 0 0 0 0 0 0 0 0 0 0 0
0 0 0 0 0 0 0 0 0 0 0 0 0 0 0 0 0 0 0 0 0 0 0 0 0 0 0 0 0 0 0 0 0 0 0 0 0 0 0 0 0 0 0 0
0 0 0 0 0 0 0 0 0 0 0 0 0 0 0 0 0 0 0 0 0 0 0 0 0 0 0 0 0 0 0 0 0 0 0 0 0 0 0 0 0 0 0 0
0 0 0 0 0 0 0 0 0 0 0 0 0 0 0 0 0 0 0 0 0 0 0 0 0 0 0 0 0 0 0 0 0 0 0 0 0 0 0 0 0 0 0 0
0 0 0 0 0 0 0 0 0 0 0 0 0 0 0 0 0 0 0 0 0 0 0 0 0 0 0 0 0 0 0 0 0 0 0 0 0 0 0 0 0 0 0 0
0 0 0 0 0 0 0 0 0 0 0 0 0 0 0 0 0 0 0 0 0 0 0 0 0 0 0 0 0 0 0 0 0 0 0 0 0 0 0 0 0 0 0 0
0 0 0 0 0 0 0 0 0 0 0 0 0 0 0 0 0 0 0 0 0 0 0 0 0 0 0 0 0 0 0 0 0 0 0 0 0 0 0 0 0 0 0 0
0 0 0 0 0 0 0 0 0 0 0 0 0 0 0 0 0 0 0 0 0 0 0 0 0 0 0 0 0 0 0 0 0 0 0 0 0 0 0 0 0 0 0 0
0 0 0 0 0 0 0 0 0 0 0 0 0 0 0 0 0 0 0 0 0 0 0 0 0 0 0 0 0 0 0 0 0 0 0 0 0 0 0 0 0 0 0 0
0 0 0 0 0 0 0 0 0 0 0 0 0 0 0 0 0 0 0 0 0 0 0 0 0 0 0 0 0 0 0 0 0 0 0 0 0 0 0 0 0 0 0 0
0 0 0 0 0 0 0 0 0 0 0 0 0 0 0 0 0 0 0 0 0 0 0 0 0 0 0 0 0 0 0 0 0 0 0 0 0 0 0 0 0 0 0 0
0 0 0 0 0 0 0 0 0 0 0 0 0 0 0 0 0 0 0 0 0 0 0 0 0 0 0 0 0 0 0 0 0 0 0 0 0 0 0 0 0 0 0 0
0 0 0 0 0 0 0 0 0 0 0 0 0 0 0 0 0 0 0 0 0 0 0 0 0 0 0 0 0 0 0 0 0 0 0 0 0 0 0 0 0 0 0 0
0 0 0 0 0 0 0 0 0 0 0 0 0 0 0 0 0 0 0 0 0 0 0 0 0 0 0 0 0 0 0 0 0 0 0 0 0 0 0 0 0 0 0 0
0 0 0 0 0 0 0 0 0 0 0 0 0 0 0 0 0 0 0 0 0 0 0 0 0 0 0 0 0 0 0 0 0 0 0 0 0 0 0 0 0 0 0 0
0 0 0 0 0 0 0 0 0 0 0 0 0 0 0 0 0 0 0 0 0 0 0 0 0 0 0 0 0 0 0 0 0 0 0 0 0 0 0 0 0 0 0 0
0 0 0 0 0 0 0 0 0 0 0 0 0 0 0 0 0 0 0 0 0 0 0 0 0 0 0 0 0 0 0 0 0 0 0 0 0 0 0 0 0 0 0 0
0 0 0 0 0 0 0 0 0 0 0 0 0 0 0 0 0 0 0 0 0 0 0 0 0 0 0 0 0 0 0 0 0 0 0 0 0 0 0 0 0 0 0 0
0 0 0 0 0 0 0 0 0 0 0 0 0 0 0 0 0 0 0 0 0 0 0 0 0 0 0 0 0 0 0 0 0 0 0 0 0 0 0 0 0 0 0 0
0 0 0 0 0 0 0 0 0 0 0 0 0 0 0 0 0 0 0 0 0 0 0 0 0 0 0 0 0 0 0 0 0 0 0 0 0 0 0 0 0 0 0 0
0 0 0 0 0 0 0 0 0 0 0 0 0 0 0 0 0 0 0 0 0 0 0 0 0 0 0 0 0 0 0 0 0 0 0 0 0 0 0 0 0 0 0 0
0 0 0 0 0 0 0 0 0 0 0 0 0 0 0 0 0 0 0 0 0 0 0 0 0 0 0 0 0 0 0 0 0 0 0 0 0 0 0 0 0 0 0 0
Height
5696 5697 5697 5698 5697 5697 5696 5697 5698 5699 5699 5700 5702 5704 5705 5706 5707 5708 5709 5710 5712 5713 5713 5714 5715 5716 5718 5719 5721 5722 5724 5727 5730 5733 5736 5738 5741 5744 5746 5748 5750 5752 5754 5755
5690 5690 5691 5689 5689 5689 5689 5689 5690 5692 5692 5692 5694 5695 5697 5698 5700 5701 5701 5703 5704 5705 5706 5707 5708 5709 5711 5712 5714 5715 5717 5720 5723 5726 5728 5730 5732 5735 5738 5739 5742 5743 5745 5747
5682 5683 5682 5682 5682 5682 5682 5683 5683 5684 5684 5685 5686 5687 5690 5691 5692 5693 5694 5695 5696 5697 5698 5699 5701 5702 5703 5705 5706 5708 5710 5712 5715 5718 5720 5722 5724 5727 5729 5731 5733 5735 5736 5738
5674 5675 5675 5675 5675 5675 5675 5676 5676 5676 5676 5677 5679 5678 5683 5683 5684 5685 5686 5687 5688 5689 5690 5692 5693 5695 5696 5697 5698 5700 5702 5704 5706 5709 5711 5714 5716 5719 5721 5722 5724 5726 5728 5729
5667 5667 5667 5667 5668 5667 5668 5668 5669 5669 5669 5669 5671 5670 5674 5676 5677 5678 5678 5679 5680 5681 5683 5684 5685 5687 5688 5689 5690 5692 5694 5696 5698 5700 5703 5705 5707 5709 5711 5713 5715 5717 5718 5720
5660 5660 5660 5660 5661 5660 5661 5661 5661 5661 5661 5662 5664 5663 5665 5668 5670 5670 5670 5671 5672 5673 5674 5675 5677 5678 5679 5681 5682 5684 5686 5688 5690 5692 5694 5696 5698 5700 5702 5704 5706 5707 5709 5710
5653 5653 5653 5653 5653 5653 5654 5654 5654 5653 5653 5655 5656 5656 5658 5660 5661 5662 5663 5663 5664 5665 5666 5667 5668 5669 5671 5672 5673 5675 5677 5679 5681 5683 5685 5687 5688 5690 5692 5694 5696 5697 5699 5700
5645 5646 5647 5646 5646 5646 5646 5647 5648 5647 5647 5648 5648 5649 5653 5652 5653 5654 5655 5655 5656 5657 5657 5658 5660 5661 5662 5663 5665 5666 5668 5670 5672 5674 5676 5677 5679 5681 5683 5684 5686 5688 5689 5690
5638 5639 5639 5639 5639 5640 5639 5640 5641 5640 5639 5640 5641 5643 5645 5646 5646 5646 5647 5648 5648 5649 5650 5650 5651 5652 5653 5655 5656 5657 5659 5660 5662 5664 5665 5667 5669 5671 5673 5674 5676 5677 5678 5679
5631 5632 5632 5632 5632 5633 5634 5634 5634 5633 5633 5633 5634 5636 5639 5639 5639 5639 5639 5640 5640 5641 5642 5642 5643 5643 5644 5645 5647 5648 5649 5650 5652 5653 5655 5657 5658 5660 5662 5663 5665 5666 5667 5668
5624 5625 5625 5626 5626 5627 5627 5628 5627 5627 5627 5627 5627 5632 5632 5633 5632 5632 5632 5632 5632 5633 5634 5634 5635 5635 5636 5636 5637 5638 5639 5640 5642 5643 5645 5646 5648 5649 5651 5652 5653 5654 5655 5656
5617 5617 5617 5619 5620 5619 5620 5620 5621 5621 5620 5620 5620 5626 5625 5626 5625 5625 5625 5625 5625 5625 5625 5626 5626 5626 5627 5627 5628 5629 5629 5630 5632 5633 5634 5635 5637 5638 5639 5640 5641 5642 5643 5643
5610 5610 5610 5611 5614 5613 5613 5614 5614 5613 5613 5612 5613 5618 5618 5618 5618 5617 5618 5617 5617 5617 5617 5617 5618 5618 5618 5618 5619 5619 5620 5621 5621 5622 5623 5624 5625 5627 5628 5628 5629 5630 5630 5631
5603 5603 5604 5605 5605 5605 5605 5606 5606 5605 5604 5604 5606 5609 5611 5610 5610 5610 5609 5609 5609 5609 5609 5609 5609 5609 5609 5609 5610 5610 5610 5611 5611 5612 5613 5614 5614 5615 5616 5616 5617 5617 5618 5618
5595 5595 5596 5597 5597 5597 5598 5598 5598 5597 5597 5597 5599 5600 5603 5602 5601 5601 5601 5601 5601 5601 5601 5600 5600 5600 5600 5600 5600 5601 5601 5601 5601 5601 5602 5602 5602 5603 5603 5604 5604 5604 5604 5604
5587 5588 5588 5589 5589 5589 5590 5591 5591 5590 5590 5590 5591 5592 5594 5593 5593 5593 5593 5593 5593 5593 5592 5591 5591 5591 5591 5591 5591 5591 5591 5591 5591 5591 5591 5591 5591 5591 5591 5591 5591 5591 5591 5591
5580 5581 5581 5581 5582 5581 5583 5585 5584 5584 5584 5583 5583 5586 5585 5585 5585 5585 5585 5585 5585 5585 5584 5583 5583 5582 5582 5582 5582 5582 5582 5581 5581 5580 5580 5579 5579 5579 5578 5578 5578 5578 5578 5578
5573 5573 5573 5573 5575 5574 5579 5578 5577 5576 5577 5576 5576 5577 5577 5577 5577 5577 5577 5577 5576 5576 5576 5575 5574 5574 5574 5573 5573 5572 5572 5571 5570 5569 5568 5568 5567 5566 5566 5565 5565 5565 5565 5564
5566 5566 5566 5566 5566 5567 5571 5570 5570 5569 5570 5570 5569 5569 5569 5569 5569 5570 5569 5569 5569 5568 5568 5567 5566 5566 5565 5565 5564 5563 5562 5561 5560 5559 5557 5556 5555 5554 5554 5553 5553 5552 5552 5551
5559 5560 5560 5560 5559 5560 5565 5564 5562 5563 5563 5563 5562 5561 5561 5561 5562 5563 5562 5561 5560 5560 5559 5558 5558 5557 5557 5556 5555 5554 5552 5551 5549 5548 5546 5545 5543 5542 5542 5541 5541 5540 5539 5538
5553 5553 5554 5553 5552 5554 5557 5556 5556 5557 5557 5556 5555 5554 5554 5554 5554 5555 5554 5553 5552 5552 5551 5550 5549 5549 5548 5547 5546 5544 5543 5541 5539 5537 5535 5534 5532 5531 5530 5529 5528 5527 5526 5526
5546 5547 5547 5547 5547 5551 5550 5549 5549 5549 5549 5548 5547 5547 5547 5547 5547 5547 5546 5546 5545 5544 5543 5542 5541 5540 5540 5538 5537 5535 5533 5532 5529 5527 5525 5523 5521 5519 5518 5517 5516 5515 5514 5514
5540 5541 5541 5542 5544 5543 5543 5542 5542 5542 5542 5541 5541 5541 5541 5540 5540 5539 5539 5538 5537 5536 5535 5534 5533 5532 5531 5529 5527 5526 5524 5521 5519 5517 5515 5513 5510 5509 5507 5506 5505 5504 5503 5502
5534 5534 5535 5535 5536 5536 5536 5535 5535 5535 5535 5535 5535 5535 5534 5533 5533 5532 5532 5531 5530 5529 5527 5526 5525 5524 5522 5520 5518 5516 5514 5512 5509 5507 5505 5502 5500 5498 5496 5494 5493 5493 5492 5491
5527 5528 5528 5528 5530 5529 5530 5529 5529 5529 5529 5528 5528 5528 5527 5526 5526 5525 5524 5523 5522 5521 5520 5518 5517 5515 5513 5511 5509 5506 5504 5502 5499 5497 5494 5492 5490 5487 5485 5483 5482 5481 5480 5479
5521 5522 5522 5523 5523 5523 5523 5523 5523 5522 5522 5522 5521 5521 5520 5519 5519 5518 5517 5516 5514 5513 5512 5510 5509 5507 5505 5502 5500 5497 5494 5492 5489 5487 5484 5482 5479 5477 5474 5473 5471 5470 5469 5468
Wind_Speed
28 28 28 28 29 30 30 30 31 31 32 33 33 33 32 32 32 32 32 32 32 32 32 32 32 33 33 33 33 34 35 35 36 37 38 37 37 36 36 37 37 38 38 37
28 28 28 28 28 29 30 31 30 30 31 32 33 33 32 32 33 32 32 32 32 32 32 32 32 32 33 33 33 34 35 36 36 36 37 38 37 37 36 37 38 38 39 38
28 28 29 30 29 29 30 30 30 30 31 32 32 33 32 32 33 33 33 33 33 33 32 31 31 32 32 33 33 35 36 36 36 36 37 38 38 37 37 37 37 39 39 39
29 28 29 30 30 30 30 30 30 30 31 32 32 33 31 32 32 32 32 32 33 32 32 32 32 32 33 33 34 35 37 37 38 37 37 39 39 38 39 39 39 39 39 40
28 28 28 29 29 29 29 29 30 31 31 32 32 34 32 32 32 32 31 32 32 32 32 33 34 34 34 34 35 36 37 38 38 38 38 40 41 40 39 41 40 39 40 40
27 28 28 28 29 30 30 30 31 32 32 33 32 33 33 32 32 32 32 32 32 33 33 34 34 34 34 35 36 37 37 38 38 39 39 39 40 41 41 42 43 42 41 41
28 28 28 27 28 29 29 30 31 32 32 33 31 32 32 31 31 32 32 33 33 34 34 34 34 34 35 35 36 37 37 38 39 39 40 40 40 40 42 42 42 42 43 44
28 28 27 28 27 28 29 29 30 31 30 30 30 30 29 29 30 30 31 32 32 33 33 33 34 35 36 36 37 37 38 38 39 40 40 41 41 41 42 42 43 42 43 44
27 27 27 28 28 28 28 28 28 29 30 29 30 29 28 28 28 29 30 30 31 31 32 33 34 35 35 35 36 37 38 39 40 40 41 41 42 42 42 43 43 43 43 43
27 28 27 27 27 27 27 26 26 28 29 29 29 28 27 27 28 28 29 30 31 31 31 31 33 34 35 35 36 37 37 38 39 40 41 41 42 43 43 43 44 44 44 44
27 27 26 26 26 26 26 26 27 28 30 31 29 27 26 27 27 28 29 30 30 30 31 31 32 33 34 35 35 36 37 37 38 39 41 41 42 43 43 44 45 46 47 47
27 28 27 25 25 25 27 27 27 28 29 30 31 29 27 27 28 29 29 30 30 30 31 32 32 32 33 34 35 36 37 38 38 39 40 41 42 43 43 44 45 46 47 48
27 27 27 26 26 26 27 28 29 30 31 31 31 30 28 28 28 29 29 29 30 31 31 31 31 32 32 33 34 36 37 38 38 39 39 41 42 43 43 44 45 46 46 47
27 28 28 27 27 27 27 28 29 30 31 31 31 29 28 29 29 29 29 30 30 30 31 31 31 31 32 33 34 35 36 37 38 39 40 41 42 43 44 44 44 45 46 47
27 27 28 28 28 28 27 28 29 29 30 31 29 28 27 28 29 29 30 30 30 30 31 32 32 31 32 33 34 34 35 36 37 38 40 40 41 42 43 44 45 45 46 46
27 28 27 27 28 28 27 27 28 29 29 29 28 27 26 28 29 29 29 30 30 29 30 31 31 31 32 32 32 33 34 35 36 37 39 39 40 41 42 43 44 45 46 46
27 27 27 27 28 28 27 25 26 27 27 28 28 26 25 26 28 29 29 30 30 29 29 29 30 30 30 31 32 33 33 34 35 37 38 39 40 41 42 43 44 44 45 45
26 26 27 27 27 28 26 25 26 26 26 26 27 26 26 26 27 27 27 28 28 28 29 29 29 29 30 31 32 33 34 35 36 37 38 40 41 42 42 42 43 43 44 45
26 26 26 27 28 27 25 25 25 25 25 24 25 25 25 26 26 26 26 26 26 27 27 28 28 29 29 30 31 33 34 35 36 37 38 39 40 41 42 42 42 42 43 44
24 25 26 26 27 26 24 24 24 25 24 23 24 25 25 26 26 25 25 25 25 25 26 27 28 28 29 29 31 32 34 35 35 36 36 37 38 39 40 41 42 42 43 43
24 24 25 25 26 24 23 23 23 23 23 24 24 24 25 25 25 25 25 25 25 25 26 27 28 28 29 30 31 32 33 34 34 34 35 36 36 37 38 39 40 41 41 41
24 24 24 24 24 23 22 22 22 22 21 22 22 22 23 24 24 24 24 24 25 25 26 27 28 28 29 30 31 32 32 33 33 34 35 35 35 36 36 37 38 38 38 39
23 23 23 23 22 21 21 21 21 21 21 21 21 21 21 21 22 22 23 23 23 24 25 26 27 27 28 29 30 31 32 33 33 34 34 35 35 36 36 37 37 37 37 38
22 22 22 22 21 21 21 21 22 22 22 21 21 21 21 21 22 22 23 23 23 24 25 26 26 27 28 29 30 31 32 33 34 35 35 36 36 36 37 37 37 38 38 38
22 22 21 21 20 20 19 21 22 23 23 23 23 22 22 22 22 23 23 24 25 25 25 26 27 28 29 29 30 31 32 33 34 35 35 35 36 36 36 36 36 37 37 38
23 22 22 20 20 20 20 21 22 23 23 23 23 23 23 23 23 23 24 25 25 26 26 27 28 28 29 30 31 32 33 33 34 34 35 35 35 36 36 36 36 37 37 37
Wind_Direction
268 267 266 266 265 264 262 260 259 257 255 255 255 254 253 254 254 255 256 254 252 254 256 257 256 255 255 255 254 253 249 247 246 247 248 248 247 248 250 251 253 252 254 258
268 268 267 266 265 264 262 260 260 259 257 256 255 254 252 253 254 255 255 255 254 255 255 255 255 255 254 253 253 253 250 247 247 247 248 248 248 247 250 252 253 252 254 256
269 268 267 266 266 265 263 262 261 260 258 257 256 255 252 252 253 254 253 253 254 255 255 255 255 254 254 253 253 252 251 249 249 248 248 249 250 249 250 252 252 253 254 254
269 268 267 266 265 265 264 263 262 262 260 259 258 258 253 253 254 254 254 254 254 255 255 255 254 255 254 253 253 253 252 252 251 250 249 250 251 251 252 253 254 254 255 256
270 268 267 266 264 264 263 262 262 262 261 261 259 260 256 254 255 255 255 255 255 255 255 255 254 255 255 255 254 254 254 254 253 251 252 252 252 253 254 254 255 255 256 258
272 269 267 266 265 263 263 262 261 261 261 262 261 261 260 257 257 257 256 257 257 257 257 257 255 255 256 256 256 256 255 254 255 254 254 254 254 255 255 256 257 258 259 260
271 269 267 266 265 264 263 263 262 262 263 263 262 262 262 261 259 258 258 258 259 260 260 258 257 257 257 257 257 257 256 256 256 255 255 255 255 256 255 257 258 259 260 262
270 268 266 265 265 265 263 262 263 263 264 264 262 262 261 261 262 261 260 260 260 261 261 259 258 258 258 257 257 256 256 256 256 256 256 256 256 256 258 258 259 261 261 262
269 268 267 264 264 263 261 260 262 262 263 264 263 263 261 262 263 263 262 262 262 262 262 260 259 258 258 258 257 257 257 257 257 257 257 257 257 258 259 260 261 262 263 263
269 267 268 266 264 262 260 259 262 262 263 265 265 265 264 263 264 264 263 263 263 264 263 261 260 259 258 258 257 257 258 258 257 256 257 258 258 260 260 260 261 262 263 264
267 267 267 266 265 262 260 260 262 264 264 265 266 266 267 266 265 264 264 265 265 265 264 262 260 260 260 259 259 260 260 260 260 258 258 258 259 261 262 263 263 263 264 265
266 266 266 266 265 264 261 261 262 264 266 266 266 267 268 269 269 267 267 266 266 267 266 265 264 262 262 262 262 261 261 262 262 262 261 260 261 262 262 263 264 265 266 267
265 265 266 266 266 266 265 263 263 265 267 267 267 268 269 271 270 269 268 267 268 268 268 267 267 265 264 264 264 263 263 263 262 262 262 262 262 263 264 265 266 266 267 267
265 264 265 266 268 269 268 267 266 267 267 268 269 270 269 270 270 269 268 268 268 269 269 268 267 267 266 266 266 265 265 264 263 263 263 264 264 264 264 266 267 267 268 269
265 266 265 265 266 267 268 267 267 267 268 269 270 269 269 269 270 269 268 269 269 270 270 268 268 267 267 267 266 266 266 266 265 264 264 266 266 265 266 267 267 268 269 270
263 265 266 264 265 267 267 268 268 268 269 271 272 271 271 269 267 268 267 268 269 270 269 268 267 267 266 267 267 267 268 267 267 266 266 266 267 267 267 268 268 268 269 270
263 264 265 264 265 267 267 269 269 269 269 271 271 273 271 269 269 268 268 268 268 269 269 268 267 268 268 268 268 269 270 270 270 270 269 269 268 268 269 269 269 269 269 270
263 263 264 264 265 267 271 270 270 271 271 272 272 272 271 271 270 269 270 270 269 268 268 268 267 267 269 270 270 271 272 272 273 273 273 272 270 269 268 269 269 270 270 271
261 262 264 265 266 268 269 272 273 274 273 273 273 273 271 271 271 270 271 270 270 270 270 269 269 270 271 272 273 274 275 275 275 276 276 275 273 271 270 270 270 271 272 272
259 261 264 266 267 270 271 271 272 273 274 273 274 273 273 272 272 272 272 272 271 272 272 272 272 273 274 276 277 277 277 277 278 277 277 277 276 274 272 271 271 272 273 273
259 261 265 267 270 271 271 271 272 274 275 275 275 275 275 274 274 272 272 273 273 274 275 275 275 275 276 278 280 280 280 280 280 279 279 280 279 277 275 274 273 273 274 274
259 260 263 267 270 272 272 271 272 275 275 275 276 276 275 273 273 273 274 274 275 276 278 277 277 278 279 281 282 282 282 282 282 281 281 281 280 280 279 277 276 275 275 275
260 261 264 266 269 271 271 271 271 273 274 275 276 276 276 276 275 275 277 278 277 279 280 281 280 281 283 284 284 284 283 282 282 283 283 283 282 281 280 278 276 275 275 276
260 260 263 265 266 269 269 270 271 273 274 275 275 276 277 278 278 278 280 279 279 280 282 283 283 283 284 285 286 285 285 284 285 285 284 284 283 282 280 278 276 276 276 277
260 259 263 265 267 269 269 270 271 274 276 277 277 276 277 278 280 281 281 280 281 282 283 284 286 286 288 288 289 289 288 287 286 286 286 285 285 284 282 279 277 277 277 278
260 261 263 266 267 269 269 271 273 274 275 276 276 274 276 279 280 281 281 281 282 283 285 286 287 288 290 291 292 292 291 290 289 288 288 287 286 285 283 280 279 278 278 279